Location: LDNL
(36.4545°S, 141.6685°E)
Time: 00:51:23
(UTC+11:00)

Altair - All Passes

Search period start: 06 February 2023 00:00
Search period end: 16 February 2023 00:00
Orbit: 1501 x 1683 km, 47.2° (Epoch: 04 February)

Date Brightness Start Highest point End Pass type
(mag) Time Alt. Az. Time Alt. Az. Time Alt. Az.
06 Feb - 05:48:54 10° N 05:56:47 28° NE 06:04:28 10° ESE visible
06 Feb - 07:50:52 10° NW 08:00:44 87° NE 08:10:16 10° ESE daylight
06 Feb - 09:57:00 10° W 10:06:15 48° SSW 10:15:14 10° ESE daylight
06 Feb - 12:03:39 10° WSW 12:12:42 47° SSE 12:21:30 10° E daylight
06 Feb - 14:08:52 10° WSW 14:18:13 89° SE 14:27:27 10° NE daylight
06 Feb - 16:14:38 10° WSW 16:22:03 28° NW 16:29:28 10° N daylight
07 Feb - 05:24:10 10° N 05:31:42 25° NE 05:39:02 10° ESE visible
07 Feb - 07:25:39 10° NW 07:35:32 82° NE 07:45:04 10° ESE daylight
07 Feb - 09:31:37 10° W 09:40:57 50° SSW 09:50:00 10° ESE daylight
07 Feb - 11:38:22 10° WSW 11:47:24 46° S 11:56:11 10° E daylight
07 Feb - 13:43:39 10° WSW 13:53:02 84° SSE 14:02:16 10° ENE daylight
07 Feb - 15:49:14 10° WSW 15:56:58 31° NW 16:04:42 10° N daylight
08 Feb - 04:59:29 10° N 05:06:35 22° NE 05:13:32 10° E visible
08 Feb - 07:00:28 10° NW 07:10:20 77° NE 07:19:53 10° ESE daylight
08 Feb - 09:06:14 10° W 09:15:39 52° SSW 09:24:47 10° ESE daylight
08 Feb - 11:13:03 10° WSW 11:22:05 45° S 11:30:52 10° E daylight
08 Feb - 13:18:26 10° SW 13:27:51 80° SSE 13:37:04 10° ENE daylight
08 Feb - 15:23:53 10° WSW 15:31:54 35° NW 15:39:53 10° NNE daylight
09 Feb - 04:34:55 10° NNE 04:41:30 20° NE 04:47:57 10° E visible
09 Feb - 06:35:18 10° NW 06:45:09 72° NE 06:54:41 10° ESE daylight
09 Feb - 08:40:51 10° W 08:50:21 54° SSW 08:59:34 10° ESE daylight
09 Feb - 10:47:43 10° WSW 10:56:46 44° S 11:05:33 10° ESE daylight
09 Feb - 12:53:13 10° SW 13:02:39 75° SSE 13:11:51 10° ENE daylight
09 Feb - 14:58:32 10° WSW 15:06:49 38° NW 15:15:01 10° NNE daylight
10 Feb - 04:10:26 10° NNE 04:16:25 18° NE 04:22:17 10° E visible
10 Feb - 06:10:09 10° NW 06:19:59 67° NE 06:29:29 10° ESE visible
10 Feb - 08:15:28 10° W 08:25:04 56° SSW 08:34:21 10° ESE daylight
10 Feb - 10:22:23 10° WSW 10:31:27 44° S 10:40:14 10° ESE daylight
10 Feb - 12:28:00 10° SW 12:37:26 71° SSE 12:46:37 10° ENE daylight
10 Feb - 14:33:14 10° WSW 14:41:44 42° NW 14:50:08 10° NNE daylight
11 Feb - 03:46:06 10° NNE 03:51:20 16° ENE 03:56:30 10° E visible
11 Feb - 05:45:02 10° NW 05:54:48 62° NE 06:04:16 10° ESE visible
11 Feb - 07:50:06 10° W 07:59:47 58° SSW 08:09:09 10° ESE daylight
11 Feb - 09:57:02 10° WSW 10:06:08 44° S 10:14:55 10° ESE daylight
11 Feb - 12:02:46 10° SW 12:12:13 67° SSE 12:21:22 10° ENE daylight
11 Feb - 14:07:56 10° WSW 14:16:38 46° NW 14:25:12 10° NNE daylight
12 Feb - 03:21:59 10° NNE 03:26:15 13° ENE 03:30:29 10° E visible
12 Feb - 05:19:56 10° NNW 05:29:39 57° NE 05:39:02 10° ESE visible
12 Feb - 07:24:44 10° WNW 07:34:31 61° SSW 07:43:57 10° ESE daylight
12 Feb - 09:31:41 10° WSW 09:40:48 43° S 09:49:37 10° ESE daylight
12 Feb - 11:37:32 10° SW 11:46:58 64° SSE 11:56:07 10° ENE daylight
12 Feb - 13:42:40 10° WSW 13:51:32 50° NW 14:00:15 10° NNE daylight
13 Feb - 02:58:18 10° NE 03:01:11 11° ENE 03:04:03 10° ENE visible
13 Feb - 04:54:53 10° NNW 05:04:28 53° NE 05:13:48 10° ESE visible
13 Feb - 06:59:23 10° WNW 07:09:14 64° SSW 07:18:45 10° SE daylight
13 Feb - 09:06:18 10° WSW 09:15:29 44° S 09:24:20 10° ESE daylight
13 Feb - 11:12:18 10° WSW 11:21:43 61° SSE 11:30:51 10° ENE daylight
13 Feb - 13:17:24 10° WSW 13:26:25 55° NW 13:35:16 10° NNE daylight
13 Feb - 15:26:51 10° WNW 15:29:31 11° WNW 15:32:10 10° NW daylight
14 Feb - 04:29:51 10° NNW 04:39:20 49° NE 04:48:32 10° ESE visible
14 Feb - 06:34:02 10° WNW 06:43:58 68° SSW 06:53:35 10° SE visible
14 Feb - 08:40:55 10° WSW 08:50:08 44° S 08:59:02 10° ESE daylight
14 Feb - 10:47:03 10° WSW 10:56:28 58° SSE 11:05:34 10° E daylight
14 Feb - 12:52:08 10° WSW 13:01:18 60° NW 13:10:15 10° NE daylight
14 Feb - 15:00:29 10° W 15:04:29 14° WNW 15:08:29 10° NNW daylight
15 Feb - 04:04:51 10° NNW 04:14:10 45° NE 04:23:16 10° ESE visible
15 Feb - 06:08:44 10° WNW 06:18:43 72° SSW 06:28:23 10° SE visible
15 Feb - 08:15:32 10° WSW 08:24:48 44° S 08:33:45 10° ESE daylight
15 Feb - 10:21:47 10° WSW 10:31:12 56° SSE 10:40:16 10° E daylight
15 Feb - 12:26:53 10° WSW 12:36:10 65° NW 12:45:12 10° NE daylight
15 Feb - 14:34:31 10° W 14:39:27 16° WNW 14:44:22 10° NNW daylight
